TURKSAT 4A

Last updated on Sun Apr 12 2026 00:02:53 GMT+0000 (Coordinated Universal Time)

1 39522U 14007A 26100.81600823 .00000147 00000+0 00000+0 0 9990 2 39522 0.0573 288.7323 0003630 33.0102 213.0794 1.00270348 44292
UTC large
Height (km)
Speed (km/s)
/
Latitude / Longitude
Inclination (degrees)
Orbital Period (minutes)
Azimuth
Elevation
Range (km)
Doppler Factor

Next 0 passes for location: London (51.5072 / 0.1276)

Sorry there are no passes over London.
TURKSAT 4A